Location: Moondance
(40.1328°N, 106.5113°W)
Time: 02:20:16
(UTC-06:00)

OTV 5 (USA 277) - Visible Passes

Search period start: 20 September 2018 00:00
Search period end: 30 September 2018 00:00
Orbit: 387 x 394 km, 54.5° (Epoch: 08 September)

Date Brightness Start Highest point End Pass type
(mag) Time Alt. Az. Time Alt. Az. Time Alt. Az.
23 Sep ? 06:26:09 10° SSE 06:27:42 13° SE 06:29:14 10° E visible
25 Sep ? 06:08:02 10° S 06:10:43 25° SE 06:13:26 10° ENE visible
26 Sep ? 05:13:38 10° SE 05:14:37 11° SE 05:15:37 10° ESE visible
27 Sep ? 05:51:20 15° SSW 05:53:49 54° SE 05:56:57 10° NE visible
28 Sep ? 04:57:42 22° SE 04:57:42 22° SE 05:00:10 10° ENE visible
28 Sep ? 06:30:31 10° W 06:33:25 31° NW 06:36:20 10° NNE visible
29 Sep ? 05:36:21 51° WSW 05:36:59 70° NW 05:40:10 10° NE visible
